Content
SEND FEEDBACK

Daily
Averages
Monthly
Summary
United States of America

BARRINGTON, ILLINOIS


Home > North America > United States > Illinois
Elevation: 810 feet     Latitude: 42 10N     Longitude: 088 09W

WEATHER
 
SELECT A DAY
Number of Records: 196,638;   Date Range: 1/1/95 - 8/12/14
 
SHARE

PRINT THIS DATA

[ ← Previous Day ]
WEATHER ALMANAC - AUGUST 21, 2013
[ Next Day → ]
[ °C ]   °F
Weather ElementAverageHighLow
Temperature80.4 °F90 °F (1:51 pm)69.1 °F (5:51 am)
Dewpoint65 °F69.1 °F (11:51 pm)64 °F (1:51 am)
Humidity61.3 %84 % (5:51 am)42 % (1:51 pm)
Barometer30.03 in30.08 in (7:51 am)29.95 in (6:51 pm)
Wind Speed9.1 mph13.8 mph (2:51 pm)
Wind Gust20.7 mph (3:51 pm)
Weather ElementAverage
Visibility10 mi
Wind DirectionSW (222.6 °)

Weather ElementTotal
Precipitation0.01 in
Cooling Degree Days14.6 (Base 65)
Growing Degree Days29.6 (Base 50)
Averaged from 23 records on August 21, 2013
WEATHER CONDITIONS BREAKOUT
WIND DIRECTION BREAKOUT
WEATHER BY HOUR - AUGUST 21, 2013
[ °C ]   °F
Local TimeTemperatureDewpointHumidityBarometerVisibilityWind DirectionWind SpeedGust SpeedPrecipitationEventsConditions
1:51 AM72.0 °F64.0 °F76 %30.04 in9.0 miSSW (200°)5.8 mphPartly Cloudy
2:51 AM72.0 °F64.0 °F76 %30.04 in10.0 miSSW (210°)5.8 mphClear
3:51 AM70.0 °F64.0 °F81 %30.04 in10.0 miSSW (210°)5.8 mphClear
4:51 AM70.0 °F64.0 °F81 %30.05 in10.0 miSW (230°)5.8 mphClear
5:51 AM69.1 °F64.0 °F84 %30.06 in10.0 miSouth (180°)5.8 mphScattered Clouds
6:51 AM70.0 °F64.0 °F81 %30.07 in10.0 miSouth (190°)3.5 mphScattered Clouds
7:51 AM73.0 °F64.9 °F76 %30.08 in10.0 miSSW (210°)5.8 mphScattered Clouds
8:51 AM75.9 °F66.0 °F71 %30.07 in10.0 miSW (220°)11.5 mphScattered Clouds
9:51 AM79.0 °F66.0 °F64 %30.07 in10.0 miSW (230°)11.5 mphPartly Cloudy
10:51 AM84.0 °F66.0 °F55 %30.07 in10.0 miWSW (250°)10.4 mphClear
11:51 AM87.1 °F64.9 °F48 %30.06 in10.0 miSW (220°)12.7 mphScattered Clouds
12:51 PM87.1 °F64.9 °F48 %30.04 in10.0 miSSW (210°)9.2 mphMostly Cloudy
1:51 PM90.0 °F64.0 °F42 %30.03 in10.0 miWSW (240°)9.2 mph19.6 mphMostly Cloudy
2:51 PM90.0 °F64.0 °F42 %30.01 in10.0 miWSW (240°)13.8 mphMostly Cloudy
3:51 PM89.1 °F64.0 °F43 %30.00 in10.0 miSW (230°)13.8 mph20.7 mphMostly Cloudy
4:51 PM89.1 °F64.9 °F45 %29.98 in10.0 miSW (220°)11.5 mph19.6 mphScattered Clouds
5:51 PM88.0 °F64.0 °F45 %29.96 in10.0 miSW (230°)11.5 mph19.6 mphScattered Clouds
6:51 PM86.0 °F64.0 °F48 %29.95 in10.0 miSW (220°)11.5 mph19.6 mphScattered Clouds
7:51 PM84.0 °F66.0 °F55 %29.99 in10.0 miSW (230°)9.2 mph17.3 mphMostly Cloudy
8:51 PM82.9 °F66.0 °F56 %30.00 in10.0 miSW (220°)9.2 mphMostly Cloudy
9:51 PM82.0 °F66.0 °F58 %30.01 in10.0 miWSW (240°)11.5 mph0.00 inRainLight Rain
10:51 PM82.0 °F66.0 °F58 %30.01 in10.0 miWSW (250°)8.1 mph0.00 inOvercast
11:51 PM77.0 °F69.1 °F76 %29.99 in10.0 miWSW (240°)6.9 mph0.01 inRain-ThunderstormLight Thunderstorms and Rain
Hourly data recorded from KORD, located miles away from Barrington, Illinois







STORIES FROM OUR PARTNERS